Weather History for Kansas City, MO

Change the Weather History Date:

Tuesday, July 9, 2013

  Actual Average Record
Temperature  
Mean Temperature 90 °F -  
Max Temperature 99 °F 86 °F 99 °F (2013)
Min Temperature 82 °F 69 °F 68 °F (1996)
Cooling Degree Days 26    
Growing Degree Days 40 (Base 50)    
Moisture  
Dew Point 70 °F    
Average Humidity 54    
Maximum Humidity 67    
Minimum Humidity 39    
Precipitation  
Precipitation 0.00 in - - ()
Sea Level Pressure  
Sea Level Pressure 29.90 in    
Wind  
Wind Speed 11 mph (SSW)    
Max Wind Speed 17 mph    
Max Gust Speed 26 mph    
Visibility 10 miles    
Events      
Averages and records for this station are not official NWS values.
T = Trace of Precipitation, MM = Missing Value Source: NWS Daily Summary

Daily Weather History Graph

Daily Weather History Graph

Search for Another Location

Airport:

Trip Planner

Search our weather history database for the weather conditions in past years. The results will help you decide how hot, cold, wet, or windy it might be!

Date:

Astronomy

Jul. 09, 2013 Rise Set
Actual Time 6:00 AM CDT 8:46 PM CDT
Civil Twilight 5:29 AM CDT 9:17 PM CDT
Nautical Twilight 4:49 AM CDT 9:57 PM CDT
Astronomical Twilight 4:04 AM CDT 10:42 PM CDT
Moon 7:24 AM CDT (7/9) 9:25 PM CDT (7/9)
Length of Visible Light 15h 48m
Length of Day
14h 45m
New Moon, 2% of the Moon is Illuminated
Jul 9
New Moon
Jul 15
First Quarter
Jul 22
Full
Jul 29
Last Quarter
Aug 6
New

Hourly Weather History & Observations

Time (CDT) Temp. Heat Index Dew Point Humidity Pressure Visibility Wind Dir Wind Speed Gust Speed Precip Events Conditions
12:54 AM 84.9 °F 87.6 °F 66.9 °F 55% 29.94 in 10.0 mi SSW 10.4 mph - N/A   Clear
1:54 AM 84.0 °F 86.5 °F 66.9 °F 56% 29.94 in 10.0 mi SSW 11.5 mph - N/A   Clear
2:54 AM 82.9 °F 85.4 °F 66.9 °F 58% 29.94 in 10.0 mi SSW 11.5 mph - N/A   Clear
3:54 AM 82.0 °F 84.5 °F 66.9 °F 60% 29.94 in 10.0 mi SSW 10.4 mph - N/A   Clear
4:54 AM 82.0 °F 84.9 °F 68.0 °F 62% 29.94 in 10.0 mi SSW 13.8 mph - N/A   Clear
5:54 AM 82.0 °F 84.9 °F 68.0 °F 62% 29.96 in 10.0 mi SW 5.8 mph - N/A   Clear
6:54 AM 82.0 °F 84.9 °F 68.0 °F 62% 29.98 in 10.0 mi SW 6.9 mph - N/A   Clear
7:54 AM 82.0 °F 85.9 °F 70.0 °F 67% 29.96 in 10.0 mi SSW 4.6 mph - N/A   Clear
8:54 AM 82.9 °F 87.0 °F 70.0 °F 65% 29.95 in 10.0 mi South 8.1 mph - N/A   Clear
9:54 AM 84.9 °F 90.1 °F 71.1 °F 63% 29.94 in 10.0 mi SSW 11.5 mph - N/A   Clear
10:54 AM 86.0 °F 92.2 °F 72.0 °F 63% 29.94 in 10.0 mi South 9.2 mph - N/A   Clear
11:54 AM 89.1 °F 96.0 °F 72.0 °F 57% 29.94 in 10.0 mi South 11.5 mph - N/A   Partly Cloudy
12:54 PM 93.0 °F 103.2 °F 73.9 °F 54% 29.91 in 10.0 mi SSE 6.9 mph - N/A   Clear
1:54 PM 96.1 °F 105.6 °F 73.0 °F 47% 29.89 in 10.0 mi South 13.8 mph - N/A   Clear
2:54 PM 98.1 °F 107.2 °F 72.0 °F 43% 29.87 in 10.0 mi South 11.5 mph 20.7 mph N/A   Clear
3:54 PM 98.1 °F 106.5 °F 71.1 °F 42% 29.86 in 10.0 mi SSW 17.3 mph 24.2 mph N/A   Clear
4:54 PM 99.0 °F 106.2 °F 70.0 °F 39% 29.84 in 10.0 mi SSW 15.0 mph 24.2 mph N/A   Clear
5:54 PM 97.0 °F 103.5 °F 70.0 °F 41% 29.83 in 10.0 mi South 15.0 mph 26.5 mph N/A   Clear
6:54 PM 96.1 °F 103.5 °F 71.1 °F 44% 29.82 in 10.0 mi SSW 12.7 mph - N/A   Clear
7:54 PM 95.0 °F 102.5 °F 71.1 °F 46% 29.82 in 10.0 mi South 9.2 mph - N/A   Clear
8:54 PM 93.0 °F 99.0 °F 70.0 °F 47% 29.83 in 10.0 mi SSW 10.4 mph - N/A   Clear
9:54 PM 91.0 °F 96.6 °F 70.0 °F 50% 29.83 in 10.0 mi South 10.4 mph - N/A   Clear
10:54 PM 90.0 °F 95.4 °F 70.0 °F 52% 29.85 in 10.0 mi SSW 10.4 mph - N/A   Clear
11:54 PM 90.0 °F 94.5 °F 69.1 °F 50% 29.87 in 10.0 mi SSW 10.4 mph - N/A   Clear